When you browse on this site, cookies collect data to enhance your experience and personalize the content and advertising you see.
Visit our Privacy Policy to learn more. By continuing to use the site, you agree to this use of cookies and data.
  • In Romania
  • List of Countries
  • For 7 days
  • Water Temperature
  • Weather Map
  • Weather Widgets
  • user-avatar
    Login

    Hourly Weather Jewłach

    Today, 25 January, Saturday

    Time Temperature Precipitation Wind Pressure Humidity
    00:00 +1°C° 0 mm 4 mps 771 mmHg 49%
    01:00 0°C° 0 mm 4 mps 771 mmHg 51%
    02:00 0°C° 0 mm 4 mps 771 mmHg 54%
    03:00 -1°C° 0 mm 4 mps 771 mmHg 56%
    04:00 0°C° 0 mm 3 mps 771 mmHg 59%
    05:00 +1°C° 0 mm 2 mps 771 mmHg 61%
    06:00 -1°C° 0 mm 2 mps 771 mmHg 64%
    07:00 +1°C° 0 mm 2 mps 771 mmHg 62%
    08:00 +1°C° 0 mm 2 mps 771 mmHg 60%
    09:00 +3°C° 0 mm 1 mps 771 mmHg 61%
    10:00 +3°C° 0 mm 2 mps 771 mmHg 54%
    11:00 +3°C° 0 mm 3 mps 770 mmHg 48%
    12:00 +4°C° 0 mm 4 mps 770 mmHg 42%
    13:00 +5°C° 0 mm 5 mps 769 mmHg 40%
    14:00 +5°C° 0 mm 5 mps 768 mmHg 38%
    15:00 +5°C° 0 mm 5 mps 767 mmHg 37%
    16:00 +5°C° 0 mm 5 mps 767 mmHg 38%
    17:00 +4°C° 0 mm 4 mps 767 mmHg 40%
    18:00 +3°C° 0 mm 3 mps 767 mmHg 41%
    19:00 +3°C° 0 mm 3 mps 767 mmHg 42%
    20:00 +3°C° 0 mm 2 mps 767 mmHg 44%
    21:00 +3°C° 0 mm 2 mps 766 mmHg 45%
    22:00 +3°C° 0 mm 2 mps 766 mmHg 46%
    23:00 +2°C° 0 mm 2 mps 766 mmHg 47%

    Tomorrow, 26 January, Sunday

    Time Temperature Precipitation Wind Pressure Humidity
    00:00 +2°C° 0 mm 2 mps 765 mmHg 48%
    01:00 +2°C° 0 mm 2 mps 765 mmHg 48%
    02:00 +1°C° 0 mm 3 mps 765 mmHg 47%
    03:00 +1°C° 0 mm 3 mps 764 mmHg 46%
    04:00 +1°C° 0 mm 3 mps 764 mmHg 47%
    05:00 0°C° 0 mm 3 mps 764 mmHg 47%
    06:00 -1°C° 0 mm 4 mps 764 mmHg 48%
    07:00 0°C° 0 mm 4 mps 764 mmHg 44%
    08:00 +1°C° 0 mm 4 mps 764 mmHg 41%
    09:00 +4°C° 0 mm 4 mps 764 mmHg 37%
    10:00 +5°C° 0 mm 5 mps 764 mmHg 33%
    11:00 +7°C° 0 mm 5 mps 763 mmHg 29%
    12:00 +9°C° 0 mm 6 mps 763 mmHg 25%
    13:00 +10°C° 0 mm 6 mps 763 mmHg 24%
    14:00 +11°C° 0 mm 6 mps 763 mmHg 22%
    15:00 +12°C° 0 mm 7 mps 762 mmHg 21%
    16:00 +10°C° 0 mm 6 mps 763 mmHg 25%
    17:00 +9°C° 0 mm 5 mps 763 mmHg 29%
    18:00 +7°C° 0 mm 4 mps 764 mmHg 33%
    19:00 +8°C° 0 mm 3 mps 765 mmHg 33%
    20:00 +7°C° 0 mm 3 mps 765 mmHg 34%
    21:00 +7°C° 0 mm 3 mps 766 mmHg 34%
    22:00 +7°C° 0 mm 3 mps 766 mmHg 38%
    23:00 +5°C° 0 mm 3 mps 767 mmHg 42%

    Day after tomorrow, 27 January, Monday

    Time Temperature Precipitation Wind Pressure Humidity
    00:00 +4°C° 0 mm 4 mps 767 mmHg 46%
    01:00 +4°C° 0 mm 3 mps 768 mmHg 51%
    02:00 +3°C° 0 mm 3 mps 768 mmHg 57%
    03:00 +4°C° 0 mm 2 mps 768 mmHg 62%
    04:00 +3°C° 0 mm 2 mps 769 mmHg 63%
    05:00 +3°C° 0 mm 2 mps 769 mmHg 64%
    06:00 +3°C° 0 mm 2 mps 770 mmHg 65%
    07:00 +3°C° 0 mm 2 mps 770 mmHg 65%
    08:00 +4°C° 0 mm 2 mps 770 mmHg 64%
    09:00 +5°C° 0 mm 2 mps 771 mmHg 64%
    10:00 +6°C° 0 mm 2 mps 770 mmHg 63%
    11:00 +7°C° 0 mm 2 mps 770 mmHg 63%
    12:00 +8°C° 0 mm 2 mps 769 mmHg 62%
    13:00 +9°C° 0 mm 1 mps 769 mmHg 60%
    14:00 +10°C° 0 mm 1 mps 769 mmHg 58%
    15:00 +10°C° 0 mm 1 mps 768 mmHg 56%
    16:00 +9°C° 0 mm 1 mps 768 mmHg 60%
    17:00 +8°C° 0 mm 1 mps 768 mmHg 63%
    18:00 +7°C° 0 mm 1 mps 769 mmHg 67%
    19:00 +7°C° 0 mm 1 mps 768 mmHg 68%
    20:00 +6°C° 0 mm 1 mps 768 mmHg 69%
    21:00 +6°C° 0 mm 1 mps 768 mmHg 71%
    22:00 +6°C° 0 mm 1 mps 768 mmHg 70%
    23:00 +5°C° 0 mm 1 mps 768 mmHg 69%

    28 January, Tuesday

    Time Temperature Precipitation Wind Pressure Humidity
    00:00 +5°C° 0 mm 1 mps 768 mmHg 69%
    01:00 +5°C° 0 mm 1 mps 767 mmHg 69%
    02:00 +4°C° 0 mm 1 mps 767 mmHg 69%
    03:00 +4°C° 0 mm 1 mps 767 mmHg 69%
    04:00 +4°C° 0 mm 1 mps 767 mmHg 69%
    05:00 +4°C° 0 mm 1 mps 767 mmHg 70%
    06:00 +3°C° 0 mm 1 mps 767 mmHg 70%
    07:00 +4°C° 0 mm 1 mps 767 mmHg 65%
    08:00 +5°C° 0 mm 1 mps 767 mmHg 60%
    09:00 +5°C° 0 mm 0 mps 766 mmHg 56%
    10:00 +7°C° 0 mm 1 mps 766 mmHg 51%
    11:00 +9°C° 0 mm 1 mps 765 mmHg 47%
    12:00 +10°C° 0 mm 1 mps 764 mmHg 43%
    13:00 +10°C° 0 mm 1 mps 764 mmHg 41%
    14:00 +11°C° 0 mm 1 mps 763 mmHg 39%
    15:00 +11°C° 0 mm 1 mps 763 mmHg 38%
    16:00 +10°C° 0 mm 1 mps 763 mmHg 41%
    17:00 +9°C° 0 mm 1 mps 763 mmHg 45%
    18:00 +8°C° 0 mm 1 mps 763 mmHg 48%
    19:00 +8°C° 0 mm 1 mps 763 mmHg 50%
    20:00 +7°C° 0 mm 1 mps 763 mmHg 52%
    21:00 +7°C° 0 mm 1 mps 763 mmHg 53%
    22:00 +6°C° 0 mm 0 mps 763 mmHg 55%
    23:00 +5°C° 0 mm 0 mps 762 mmHg 56%

    29 January, Wednesday

    Time Temperature Precipitation Wind Pressure Humidity
    00:00 +5°C° 0 mm 0 mps 762 mmHg 58%
    01:00 +5°C° 0 mm 0 mps 762 mmHg 59%
    02:00 +4°C° 0 mm 0 mps 761 mmHg 59%
    03:00 +4°C° 0 mm 0 mps 761 mmHg 60%
    04:00 +4°C° 0 mm 0 mps 761 mmHg 61%
    05:00 +4°C° 0 mm 0 mps 760 mmHg 61%
    06:00 +5°C° 0 mm 1 mps 760 mmHg 61%
    07:00 +6°C° 0 mm 1 mps 760 mmHg 58%
    08:00 +6°C° 0 mm 1 mps 760 mmHg 55%
    09:00 +7°C° 0 mm 1 mps 760 mmHg 52%
    10:00 +8°C° 0 mm 1 mps 760 mmHg 48%
    11:00 +9°C° 0 mm 1 mps 759 mmHg 44%
    12:00 +9°C° 0 mm 2 mps 759 mmHg 41%
    13:00 +10°C° 0 mm 2 mps 759 mmHg 39%
    14:00 +10°C° 0 mm 2 mps 759 mmHg 38%
    15:00 +11°C° 0 mm 1 mps 759 mmHg 37%
    16:00 +10°C° 0 mm 1 mps 759 mmHg 40%
    17:00 +10°C° 0 mm 1 mps 759 mmHg 43%
    18:00 +8°C° 0 mm 0 mps 760 mmHg 46%
    19:00 +7°C° 0 mm 0 mps 760 mmHg 47%
    20:00 +7°C° 0 mm 0 mps 760 mmHg 48%
    21:00 +7°C° 0 mm 0 mps 761 mmHg 49%
    22:00 +7°C° 0 mm 0 mps 761 mmHg 50%
    23:00 +6°C° 0 mm 0 mps 761 mmHg 50%

    30 January, Thursday

    Time Temperature Precipitation Wind Pressure Humidity
    00:00 +6°C° 0 mm 0 mps 761 mmHg 51%
    01:00 +7°C° 0 mm 1 mps 761 mmHg 52%
    02:00 +7°C° 0 mm 1 mps 761 mmHg 52%
    03:00 +5°C° 0 mm 2 mps 761 mmHg 52%
    04:00 +5°C° 0 mm 2 mps 761 mmHg 53%
    05:00 +5°C° 0 mm 2 mps 761 mmHg 54%
    06:00 +5°C° 0 mm 2 mps 761 mmHg 55%
    07:00 +6°C° 0 mm 2 mps 761 mmHg 51%
    08:00 +7°C° 0 mm 3 mps 762 mmHg 48%
    09:00 +8°C° 0 mm 3 mps 762 mmHg 45%
    10:00 +10°C° 0 mm 3 mps 761 mmHg 41%
    11:00 +11°C° 0 mm 4 mps 761 mmHg 38%
    12:00 +13°C° 0 mm 4 mps 761 mmHg 34%
    13:00 +13°C° 0 mm 4 mps 760 mmHg 33%
    14:00 +14°C° 0 mm 3 mps 760 mmHg 32%
    15:00 +16°C° 0 mm 3 mps 760 mmHg 31%
    16:00 +14°C° 0 mm 2 mps 760 mmHg 34%
    17:00 +13°C° 0 mm 2 mps 760 mmHg 37%
    18:00 +12°C° 0 mm 1 mps 760 mmHg 41%
    19:00 +11°C° 0 mm 1 mps 760 mmHg 43%
    20:00 +10°C° 0 mm 1 mps 760 mmHg 46%
    21:00 +9°C° 0 mm 0 mps 760 mmHg 48%
    22:00 +8°C° 0 mm 0 mps 759 mmHg 50%
    23:00 +8°C° 0 mm 0 mps 759 mmHg 52%
    Show more